TimeEST,TemperatureF,Dew PointF,Humidity,Sea Level PressureIn,VisibilityMPH,Wind Direction,Wind SpeedMPH,Gust SpeedMPH,PrecipitationIn,Events,Conditions,WindDirDegrees,DateUTC
12:55 AM,36.0,23.0,59,30.06,10.0,NW,8.1,-,N/A,,Clear,310,2012-12-23 05:55:00
1:55 AM,32.2,24.4,73,30.07,10.0,Calm,Calm,-,N/A,,Clear,0,2012-12-23 06:55:00
2:55 AM,30.0,23.7,77,30.08,10.0,Calm,Calm,-,N/A,,Clear,0,2012-12-23 07:55:00
4:55 AM,28.9,24.4,83,30.08,10.0,Calm,Calm,-,N/A,,Clear,0,2012-12-23 09:55:00
5:55 AM,28.9,23.5,80,30.09,10.0,Calm,Calm,-,N/A,,Clear,0,2012-12-23 10:55:00
6:55 AM,29.1,22.5,76,30.11,10.0,Calm,Calm,-,N/A,,Clear,0,2012-12-23 11:55:00
7:55 AM,30.4,22.3,72,30.12,10.0,Calm,Calm,-,N/A,,Clear,0,2012-12-23 12:55:00
8:55 AM,36.1,23.2,59,30.13,10.0,West,4.6,-,N/A,,Clear,280,2012-12-23 13:55:00
9:55 AM,39.4,21.9,50,30.12,10.0,SSW,8.1,-,N/A,,Clear,200,2012-12-23 14:55:00
10:55 AM,42.4,21.6,44,30.09,10.0,South,5.8,-,N/A,,Clear,170,2012-12-23 15:55:00
11:55 AM,45.3,19.8,36,30.06,10.0,South,5.8,-,N/A,,Clear,180,2012-12-23 16:55:00
12:55 PM,47.7,20.5,34,30.03,10.0,SSW,8.1,-,N/A,,Clear,200,2012-12-23 17:55:00
1:55 PM,50.2,21.9,33,30.00,10.0,Variable,6.9,-,N/A,,Clear,0,2012-12-23 18:55:00
2:55 PM,50.0,23.4,35,29.99,10.0,SSW,5.8,-,N/A,,Clear,210,2012-12-23 19:55:00
3:55 PM,52.3,26.4,37,29.98,10.0,SW,8.1,-,N/A,,Clear,220,2012-12-23 20:55:00
4:55 PM,49.8,28.0,43,29.98,10.0,SSW,6.9,-,N/A,,Clear,200,2012-12-23 21:55:00
5:55 PM,48.4,27.7,45,29.98,10.0,South,5.8,-,N/A,,Partly Cloudy,190,2012-12-23 22:55:00
6:55 PM,48.4,28.8,47,29.99,10.0,Variable,4.6,-,N/A,,Scattered Clouds,0,2012-12-23 23:55:00
7:55 PM,48.6,27.3,44,29.99,10.0,Variable,4.6,-,N/A,,Partly Cloudy,0,2012-12-24 00:55:00
8:55 PM,47.5,27.3,46,29.99,10.0,SW,5.8,-,N/A,,Partly Cloudy,220,2012-12-24 01:55:00
9:55 PM,47.1,27.0,46,30.00,10.0,Variable,4.6,-,N/A,,Scattered Clouds,0,2012-12-24 02:55:00
10:55 PM,46.4,25.9,45,30.01,10.0,Calm,Calm,-,N/A,,Clear,0,2012-12-24 03:55:00
11:55 PM,44.6,25.5,47,30.00,10.0,Calm,Calm,-,N/A,,Clear,0,2012-12-24 04:55:00